Temp
2 2 1 1 1 1 1 1 1 1 1 2 2 2 2 2 3 3 3 3 4 4 5 5 6 6 7 7 8 9 10 9 9 10 10 12 12 12 13 13 12 12 12
1 1 0 0 1 1 1 1 1 1 1 1 2 2 2 2 2 2 2 2 2 3 3 4 4 5 5 6 6 7 8 9 8 8 8 10 11 11 12 13 13 13 12
1 1 -0 0 0 0 1 0 0 0 0 1 1 1 1 2 2 1 1 1 2 2 3 3 3 3 4 5 5 5 6 7 7 7 7 8 8 10 11 11 12 13 13
1 1 0 -0 0 0 -0 -0 -1 -1 -1 -1 -0 -0 0 0 0 1 0 0 0 1 1 2 2 3 3 3 4 4 4 5 5 6 5 5 5 5 9 10 11 11 11
1 1 1 1 0 -0 -0 -1 -1 -1 -1 -1 -1 -1 -1 -1 -1 -0 -0 -1 -1 -0 -0 0 1 1 2 2 2 3 3 3 4 4 4 4 4 4 3 4 9 10 10
1 2 1 1 -0 -0 -1 -1 -1 -1 -1 -1 -1 -1 -1 -1 -1 -1 -1 -1 -1 -1 -1 -0 0 1 1 1 1 2 2 2 2 3 3 3 3 3 3 2 5 7 9
0 1 1 -0 -0 -0 -1 -1 -1 -1 -1 -2 -2 -2 -1 -1 -2 -2 -2 -1 -1 -1 -1 -1 -0 0 0 1 1 1 1 1 1 2 2 3 3 3 2 2 1 2 6
-0 1 1 1 0 -0 -1 -1 -1 -2 -2 -2 -2 -2 -2 -2 -3 -3 -3 -3 -2 -2 -2 -2 -1 -1 -0 0 0 1 1 1 1 1 1 2 2 2 2 1 -0 0 2
-0 0 -0 0 -0 -1 -1 -1 -2 -2 -2 -3 -3 -3 -3 -3 -3 -4 -4 -4 -4 -3 -3 -2 -2 -2 -1 -1 -0 -0 1 0 0 1 1 1 2 2 1 1 -0 -2 -1
-0 1 1 0 -0 -1 -1 -1 -1 -2 -2 -3 -3 -3 -4 -4 -4 -4 -5 -5 -4 -4 -4 -4 -3 -3 -2 -2 -2 -1 -0 -0 0 0 0 1 1 1 1 -1 -1 -1 -2
-1 -0 0 -0 -0 -0 -0 -1 -2 -2 -3 -3 -3 -4 -4 -4 -4 -5 -5 -5 -5 -5 -5 -4 -4 -3 -3 -3 -3 -2 -2 -1 -1 -1 -1 -1 -1 -0 -1 -1 -4 -5 -3
-1 -1 -1 -0 0 0 0 -0 -1 -2 -3 -3 -4 -4 -4 -5 -5 -5 -6 -6 -6 -6 -6 -5 -5 -4 -4 -4 -3 -3 -3 -3 -3 -2 -3 -3 -2 -2 -2 -3 -3 -4 -5
1 0 -0 -0 -1 -2 -2 -2 -2 -3 -3 -4 -4 -5 -5 -5 -5 -6 -6 -7 -7 -7 -6 -6 -5 -5 -5 -5 -4 -4 -5 -5 -5 -5 -5 -4 -5 -4 -4 -3 -4 -5 -5
-2 -2 -2 -2 -2 -2 -3 -3 -3 -4 -4 -4 -4 -5 -5 -6 -6 -6 -7 -7 -7 -7 -7 -6 -6 -6 -6 -5 -5 -5 -6 -8 -8 -9 -8 -8 -7 -6 -5 -5 -5 -5 -7
-3 -3 -3 -3 -3 -3 -2 -2 -3 -3 -4 -4 -5 -5 -6 -6 -6 -7 -7 -8 -8 -7 -8 -7 -7 -6 -6 -5 -6 -8 -9 -9 -8 -8 -8 -8 -8 -8 -8 -8 -7 -8 -8
-5 -4 -4 -4 -4 -3 -3 -3 -3 -4 -4 -5 -5 -6 -6 -7 -7 -7 -8 -7 -8 -8 -8 -8 -7 -7 -6 -6 -8 -9 -9 -8 -8 -8 -8 -8 -8 -8 -7 -7 -7 -7 -8
-5 -4 -4 -4 -4 -4 -4 -3 -4 -4 -4 -5 -6 -6 -7 -7 -7 -8 -7 -8 -8 -9 -9 -8 -8 -7 -6 -7 -7 -10 -9 -9 -9 -9 -8 -8 -8 -8 -8 -8 -7 -7 -7
-5 -5 -5 -5 -4 -4 -4 -4 -4 -5 -5 -5 -6 -6 -7 -7 -8 -8 -8 -8 -9 -9 -10 -9 -9 -8 -7 -7 -8 -10 -9 -9 -9 -9 -9 -9 -9 -8 -8 -7 -7 -7 -7
-7 -6 -6 -5 -5 -5 -5 -5 -5 -5 -5 -6 -6 -7 -7 -7 -8 -8 -8 -9 -10 -10 -10 -10 -9 -9 -7 -8 -9 -10 -10 -10 -9 -9 -9 -10 -9 -9 -9 -8 -7 -7 -6
-7 -7 -6 -6 -6 -5 -6 -6 -5 -5 -6 -6 -6 -7 -8 -8 -8 -9 -9 -10 -11 -11 -11 -10 -9 -9 -9 -8 -11 -11 -10 -10 -9 -9 -10 -11 -10 -9 -9 -7 -6 -6 -6
-8 -7 -7 -6 -6 -6 -6 -6 -6 -6 -6 -6 -7 -8 -8 -9 -9 -9 -10 -10 -11 -11 -11 -10 -10 -10 -10 -9 -12 -11 -10 -10 -10 -10 -11 -10 -10 -10 -9 -7 -4 -5 -6
-8 -8 -8 -7 -6 -6 -6 -6 -6 -7 -8 -7 -8 -8 -9 -9 -9 -9 -10 -11 -11 -11 -12 -11 -11 -11 -10 -11 -12 -11 -11 -10 -10 -11 -11 -10 -11 -4 -2 -3 -4 -5 -5
-8 -8 -8 -8 -6 -6 -7 -7 -6 -8 -8 -8 -8 -8 -9 -9 -9 -10 -10 -11 -11 -12 -12 -13 -13 -13 -12 -12 -11 -10 -11 -8 -10 -10 -11 -12 -11 -5 -3 -2 -4 -4 -5
-9 -8 -8 -7 -7 -7 -7 -7 -7 -8 -8 -8 -8 -9 -9 -10 -10 -10 -11 -12 -12 -12 -13 -13 -13 -13 -13 -13 -13 -12 -11 -8 -9 -8 -9 -12 -11 -11 -6 -3 -3 -4 -4
-9 -8 -8 -8 -8 -8 -7 -8 -8 -9 -9 -9 -9 -10 -10 -10 -10 -10 -11 -12 -13 -13 -13 -13 -13 -14 -14 -14 -13 -13 -13 -12 -11 -8 -8 -10 -11 -12 -11 -9 -7 -4 -3
-10 -9 -9 -9 -8 -8 -8 -8 -8 -10 -10 -10 -10 -10 -11 -11 -10 -11 -11 -12 -13 -12 -14 -14 -14 -14 -14 -14 -14 -14 -14 -13 -10 -9 -9 -11 -12 -13 -13 -13 -11 -8 -6
Height
1471 1476 1480 1483 1485 1487 1490 1492 1493 1494 1495 1496 1496 1495 1495 1495 1494 1495 1496 1497 1498 1499 1498 1498 1498 1498 1499 1498 1499 1500 1500 1501 1502 1503 1506 1510 1511 1513 1515 1518 1519 1520 1525
1467 1472 1476 1480 1483 1486 1488 1490 1492 1493 1494 1494 1493 1494 1494 1493 1493 1494 1494 1494 1495 1495 1495 1495 1495 1497 1496 1496 1496 1495 1497 1498 1499 1501 1503 1503 1507 1506 1509 1511 1513 1515 1519
1460 1466 1471 1476 1480 1483 1486 1489 1491 1492 1492 1493 1493 1493 1492 1492 1492 1492 1492 1492 1492 1492 1493 1493 1493 1492 1493 1493 1492 1493 1494 1496 1498 1499 1502 1501 1500 1499 1501 1503 1506 1508 1511
1455 1461 1467 1473 1477 1481 1485 1487 1489 1490 1491 1491 1491 1491 1491 1491 1490 1490 1490 1489 1489 1490 1490 1489 1489 1489 1490 1490 1490 1492 1492 1493 1495 1498 1498 1499 1498 1498 1496 1498 1500 1501 1504
1449 1456 1464 1470 1476 1480 1483 1485 1487 1488 1489 1489 1489 1489 1488 1487 1487 1486 1486 1486 1486 1486 1485 1485 1486 1486 1487 1487 1488 1489 1489 1490 1493 1494 1495 1496 1497 1498 1498 1494 1495 1497 1498
1446 1455 1462 1469 1474 1478 1481 1483 1484 1485 1486 1487 1486 1486 1485 1484 1483 1482 1482 1482 1482 1481 1481 1481 1482 1483 1483 1484 1484 1484 1485 1486 1488 1490 1491 1491 1494 1494 1494 1493 1492 1491 1490
1444 1451 1458 1465 1471 1475 1479 1481 1482 1483 1484 1484 1484 1483 1482 1480 1479 1479 1479 1478 1478 1477 1478 1479 1480 1479 1480 1479 1480 1480 1480 1480 1481 1485 1485 1486 1486 1488 1490 1489 1488 1487 1483
1445 1452 1459 1464 1470 1474 1477 1479 1480 1481 1482 1482 1481 1480 1479 1478 1477 1477 1476 1475 1475 1474 1474 1474 1474 1475 1475 1475 1474 1474 1475 1475 1475 1477 1478 1478 1478 1480 1481 1483 1485 1481 1478
1449 1455 1461 1466 1470 1473 1475 1476 1477 1478 1479 1479 1478 1477 1476 1475 1474 1473 1473 1472 1470 1469 1469 1469 1470 1470 1469 1469 1468 1469 1468 1469 1469 1469 1470 1470 1469 1470 1472 1474 1476 1479 1474
1454 1458 1462 1465 1468 1470 1472 1473 1474 1475 1475 1475 1474 1473 1472 1472 1471 1469 1469 1467 1466 1465 1466 1465 1464 1464 1464 1463 1462 1461 1462 1461 1462 1461 1461 1463 1463 1463 1462 1462 1464 1467 1468
1458 1459 1462 1464 1466 1467 1468 1469 1469 1470 1470 1470 1470 1470 1469 1468 1467 1466 1464 1463 1462 1461 1461 1459 1459 1459 1459 1457 1456 1454 1454 1453 1453 1453 1451 1451 1453 1452 1453 1453 1453 1455 1457
1459 1460 1461 1462 1463 1464 1465 1465 1465 1466 1467 1467 1467 1467 1466 1466 1464 1462 1460 1459 1458 1457 1455 1455 1455 1453 1452 1450 1448 1447 1446 1444 1443 1443 1442 1441 1443 1441 1442 1442 1442 1441 1445
1458 1459 1459 1459 1460 1460 1460 1460 1461 1462 1463 1463 1463 1463 1463 1462 1460 1458 1457 1455 1454 1453 1452 1451 1449 1447 1444 1443 1442 1440 1438 1436 1434 1432 1431 1432 1433 1429 1430 1429 1428 1429 1430
1454 1454 1455 1455 1454 1454 1454 1454 1455 1457 1458 1459 1460 1460 1459 1458 1457 1455 1453 1452 1450 1449 1448 1445 1443 1441 1439 1437 1434 1431 1429 1427 1424 1422 1419 1417 1418 1416 1417 1416 1414 1416 1418
1455 1454 1453 1452 1452 1451 1450 1450 1450 1452 1453 1455 1456 1456 1456 1455 1453 1452 1450 1448 1446 1445 1442 1439 1437 1434 1431 1429 1425 1423 1420 1416 1413 1412 1410 1406 1405 1401 1403 1404 1401 1402 1403
1454 1453 1453 1451 1449 1448 1446 1445 1446 1447 1449 1451 1452 1452 1452 1451 1449 1448 1445 1443 1442 1439 1436 1433 1430 1426 1424 1420 1417 1415 1411 1408 1404 1399 1395 1391 1389 1387 1387 1388 1387 1388 1388
1454 1452 1451 1449 1446 1444 1442 1441 1442 1444 1444 1446 1447 1447 1447 1446 1445 1443 1441 1439 1436 1434 1431 1427 1423 1420 1416 1412 1408 1407 1403 1397 1392 1385 1380 1373 1368 1367 1365 1364 1363 1364 1369
1451 1449 1448 1446 1444 1441 1439 1438 1438 1439 1440 1442 1442 1442 1442 1441 1440 1438 1437 1435 1433 1429 1425 1422 1417 1412 1408 1404 1400 1398 1393 1385 1378 1371 1365 1356 1347 1345 1344 1342 1338 1337 1341
1447 1444 1443 1441 1439 1438 1436 1434 1434 1435 1436 1436 1438 1438 1437 1437 1436 1435 1433 1431 1428 1424 1420 1416 1411 1404 1401 1397 1392 1389 1382 1371 1364 1354 1345 1337 1326 1320 1320 1317 1314 1314 1316
1440 1437 1436 1434 1433 1432 1430 1428 1428 1429 1429 1432 1433 1433 1432 1432 1431 1430 1429 1426 1423 1419 1414 1409 1405 1400 1395 1391 1384 1381 1371 1361 1348 1335 1326 1316 1306 1299 1295 1292 1288 1288 1293
1432 1430 1429 1427 1426 1425 1423 1422 1422 1421 1424 1426 1427 1427 1428 1427 1426 1426 1424 1422 1419 1415 1409 1405 1401 1397 1391 1382 1377 1371 1364 1352 1336 1323 1309 1297 1287 1274 1266 1262 1259 1262 1280
1424 1422 1419 1418 1418 1418 1416 1415 1415 1417 1418 1420 1421 1422 1423 1423 1422 1421 1420 1418 1415 1410 1406 1402 1397 1392 1385 1377 1369 1363 1357 1345 1331 1317 1300 1284 1268 1239 1230 1241 1248 1258 1271
1418 1415 1411 1409 1409 1409 1408 1407 1408 1410 1412 1414 1416 1417 1418 1418 1418 1416 1415 1414 1412 1408 1405 1400 1395 1387 1379 1372 1364 1357 1349 1339 1327 1314 1297 1280 1262 1240 1232 1238 1246 1256 1265
1412 1409 1405 1402 1402 1402 1401 1401 1402 1404 1406 1408 1410 1411 1412 1413 1414 1413 1412 1411 1409 1406 1403 1398 1392 1385 1377 1371 1363 1355 1346 1337 1326 1313 1297 1284 1268 1258 1241 1243 1250 1255 1260
1406 1403 1400 1397 1396 1396 1395 1395 1396 1398 1400 1403 1406 1407 1408 1409 1410 1410 1409 1408 1407 1405 1402 1398 1392 1385 1380 1374 1368 1360 1351 1340 1332 1317 1304 1289 1273 1265 1257 1252 1249 1250 1256
1401 1397 1394 1391 1390 1389 1389 1389 1390 1393 1396 1398 1401 1402 1403 1405 1406 1406 1406 1405 1404 1402 1400 1398 1393 1388 1384 1377 1367 1361 1352 1344 1334 1322 1310 1299 1291 1283 1274 1268 1260 1254 1251
Wind_Speed
28 26 23 21 19 16 13 10 7 5 3 3 4 4 5 6 7 8 9 10 10 10 11 11 11 12 12 14 16 18 20 21 26 27 33 36 30 32 36 34 34 30 32
31 30 27 24 20 16 14 11 7 5 4 4 4 5 5 6 7 8 9 10 10 10 11 11 11 11 11 12 13 14 16 18 19 20 21 22 28 32 32 36 41 32 34
36 34 32 27 23 19 14 10 7 5 4 5 6 6 6 7 7 8 9 10 11 11 11 12 12 11 10 11 11 13 14 15 15 16 13 6 11 20 25 27 37 37 37
38 35 33 29 24 19 15 11 8 5 5 5 6 7 7 7 7 8 8 9 10 11 12 12 12 12 11 11 12 13 14 15 15 15 16 20 19 7 12 19 21 34 43
37 38 34 29 24 19 14 11 8 7 6 6 8 8 9 9 9 9 9 9 10 11 12 12 12 12 12 12 13 14 14 16 15 18 17 19 22 25 24 26 16 28 28
35 34 31 29 24 20 17 12 9 8 7 8 9 10 11 11 11 11 11 10 10 11 12 13 13 14 13 13 14 16 17 18 18 20 21 22 20 17 19 24 34 39 31
32 35 33 30 25 21 16 13 10 9 9 9 10 11 12 12 13 12 13 12 11 12 13 13 14 15 15 15 16 18 19 20 22 22 24 26 27 28 28 31 34 34 40
29 30 28 28 23 19 16 14 12 11 10 10 11 12 12 13 14 14 14 13 13 13 14 14 14 16 16 16 18 20 20 23 25 26 28 31 32 33 34 35 32 36 40
23 24 22 20 19 17 16 14 13 13 12 12 11 12 13 14 14 14 15 15 15 15 16 16 17 17 18 18 20 22 22 25 26 29 31 34 37 39 39 39 38 33 26
20 16 13 16 16 15 14 16 15 14 14 13 12 12 14 14 15 15 16 16 16 17 18 18 19 19 19 20 22 23 24 27 28 32 34 36 38 42 45 45 43 43 42
12 15 15 12 11 12 14 16 17 16 14 14 13 13 14 15 15 16 16 17 17 18 19 20 21 21 21 21 24 25 26 28 30 31 35 36 36 41 44 48 47 41 42
7 11 11 8 8 12 17 19 20 19 16 16 14 13 14 14 15 16 17 18 18 19 20 21 22 22 23 23 25 27 27 30 32 33 35 37 37 41 44 47 52 52 45
9 13 13 15 17 18 20 21 22 20 18 17 14 13 14 14 15 16 17 18 19 20 20 21 22 24 25 26 28 29 32 33 35 36 39 40 40 44 45 48 51 52 52
11 17 19 21 21 17 17 18 19 19 18 17 15 14 14 14 15 16 17 18 19 20 21 21 23 25 27 29 30 31 34 35 37 39 43 45 45 47 48 50 53 53 49
6 4 5 6 9 12 14 15 17 20 20 18 16 14 14 14 15 16 17 18 19 20 22 23 24 26 28 29 29 30 34 37 39 42 45 49 51 54 51 50 54 50 50
8 11 10 10 13 15 15 16 17 19 20 19 16 16 15 14 15 17 18 19 20 20 22 23 25 26 27 28 29 28 33 37 42 47 49 52 51 52 54 56 57 55 52
12 17 17 16 17 17 14 14 14 17 20 19 17 16 16 15 16 17 19 20 21 21 21 22 23 24 26 27 27 27 33 38 42 45 49 53 56 54 58 59 63 64 64
14 23 24 21 20 18 14 12 14 18 19 19 18 17 17 16 16 17 18 19 20 19 22 22 22 25 25 26 27 28 35 38 41 45 50 53 56 57 56 60 64 70 70
31 34 28 24 22 20 16 15 15 17 18 19 18 17 17 17 16 16 17 18 18 20 22 22 23 25 26 26 27 28 35 39 46 51 51 50 52 56 50 54 66 68 67
29 28 24 23 22 20 19 18 18 19 20 17 16 17 18 17 16 16 15 16 16 19 22 23 22 23 25 24 26 29 37 43 50 53 50 48 47 46 45 51 61 69 67
30 28 25 25 24 23 22 21 20 22 19 17 17 18 17 16 15 14 14 14 16 19 23 23 22 24 25 25 28 30 35 42 48 49 49 44 43 50 51 48 48 66 60
28 25 28 29 26 24 23 23 23 20 20 20 19 17 16 15 15 14 13 13 16 19 24 25 28 30 28 29 30 31 34 36 38 40 38 38 50 46 41 35 34 49 49
27 25 24 24 23 21 21 22 20 18 18 20 19 17 16 15 14 14 12 13 15 17 22 27 30 34 32 35 34 33 35 32 33 28 27 34 41 22 5 19 24 39 44
27 22 20 20 20 17 18 21 17 17 18 20 19 18 15 14 14 13 11 11 15 14 19 25 29 33 32 36 36 35 35 31 32 32 32 38 33 32 13 17 29 36 43
25 21 19 18 18 17 18 17 18 18 19 18 19 18 16 14 13 11 9 9 11 12 14 21 22 28 29 31 28 27 31 29 32 35 40 44 45 44 35 24 12 25 40
24 23 21 19 18 18 18 16 17 19 19 19 20 19 15 12 11 10 7 7 9 11 10 13 15 20 19 23 24 22 24 28 30 38 43 47 48 49 45 39 35 25 22
Wind_Direction
202 201 201 202 201 203 205 205 211 223 246 277 290 288 282 275 265 258 253 249 246 246 247 252 254 251 252 252 253 255 257 259 260 260 250 247 243 242 246 249 245 241 245
201 199 199 202 206 210 207 209 218 238 269 290 298 294 287 274 268 262 259 255 254 254 256 257 257 257 260 262 265 266 263 263 269 267 271 268 253 250 243 245 245 246 243
201 198 198 200 202 205 208 210 222 244 272 295 303 304 297 284 274 265 264 261 257 253 252 257 263 267 269 271 274 274 272 268 263 268 258 273 245 251 246 251 247 248 245
208 203 199 199 201 204 204 210 221 243 268 294 309 313 307 294 280 270 262 260 259 259 256 255 259 262 267 270 271 274 275 274 271 260 256 247 254 275 266 239 243 248 252
207 201 202 202 202 203 207 213 225 247 270 294 307 313 313 307 298 287 278 269 263 262 262 260 262 266 267 267 270 271 272 274 273 270 260 255 253 256 260 269 240 242 243
207 202 201 199 200 203 208 218 231 250 272 292 306 313 315 309 303 296 287 277 268 263 265 264 262 263 265 266 269 272 273 272 268 267 267 265 261 257 260 268 266 264 247
197 194 195 194 199 208 215 222 235 252 268 283 299 311 314 311 306 301 294 288 279 270 268 265 261 260 263 267 270 270 271 272 273 271 270 267 265 264 258 258 262 268 265
188 190 192 194 201 210 221 228 235 250 262 275 293 305 311 310 306 301 298 295 289 281 276 274 271 269 269 270 271 271 272 272 272 271 270 270 268 267 267 264 265 271 267
175 182 183 194 206 216 224 233 240 249 260 271 286 299 307 308 304 302 300 296 293 290 287 284 281 281 281 279 277 277 275 272 272 273 272 269 269 270 268 265 263 257 264
155 169 191 208 212 220 227 234 241 248 254 264 278 295 304 306 304 304 301 299 295 292 289 288 288 287 286 284 284 283 280 277 274 274 271 268 267 264 265 267 264 258 250
181 188 201 206 216 232 244 251 252 254 256 263 276 289 299 305 306 305 302 298 295 292 291 292 292 292 289 288 288 289 286 284 282 279 277 274 270 267 264 264 263 257 254
219 205 200 206 243 260 262 264 258 252 250 258 269 281 293 302 306 304 302 299 296 294 294 295 295 295 295 293 293 293 293 292 290 287 280 276 276 272 268 264 261 261 246
257 226 232 251 260 267 260 257 253 245 242 251 262 277 290 302 308 308 304 299 296 294 294 296 297 295 296 293 292 293 293 290 288 286 282 279 277 273 271 268 265 261 257
283 267 266 275 276 270 266 261 249 242 241 249 259 272 287 300 307 307 303 300 296 297 297 295 295 294 292 292 293 292 291 287 286 288 288 285 279 274 270 268 266 262 254
327 339 335 316 302 288 282 269 245 236 237 244 253 265 279 294 303 307 306 303 302 301 299 296 294 293 293 294 294 292 291 290 288 284 280 279 276 274 266 262 262 254 249
349 335 330 323 321 304 286 266 254 242 239 242 249 259 274 289 300 307 308 308 307 305 303 300 298 297 295 294 292 288 289 287 284 283 283 280 273 266 265 258 252 253 245
345 345 331 320 324 317 294 266 256 243 241 243 246 257 270 286 298 308 313 314 309 309 307 308 306 302 300 299 295 290 289 287 285 286 288 283 275 269 263 258 254 251 250
318 328 325 310 314 319 303 273 252 240 242 244 246 257 268 283 296 309 314 311 312 315 317 318 314 311 308 306 298 297 297 294 296 298 290 284 280 274 268 260 250 247 241
295 298 306 297 299 308 300 275 257 250 246 246 247 255 265 279 295 308 313 311 317 321 323 325 321 319 312 313 308 309 309 308 305 305 304 293 283 279 270 258 252 244 239
302 295 291 289 286 299 295 272 260 253 250 250 250 254 263 277 293 306 313 313 321 327 329 328 327 328 324 320 322 319 320 315 318 316 305 298 289 282 276 262 257 237 232
305 294 284 283 283 291 289 273 261 253 253 250 248 252 261 275 290 304 309 311 315 325 333 334 336 343 342 337 332 331 324 327 323 317 317 311 304 294 277 264 257 229 223
312 299 286 278 279 279 278 271 263 259 251 242 248 251 259 272 286 299 306 306 311 325 337 340 346 351 349 352 343 337 337 335 332 329 326 329 324 312 262 238 238 222 214
311 307 292 283 275 271 269 268 270 260 237 236 243 247 256 268 283 296 303 302 312 328 341 345 349 350 354 357 353 346 348 351 353 350 356 356 357 356 280 217 218 217 213
312 310 300 284 275 269 267 269 261 250 232 234 237 239 248 264 277 290 300 299 309 329 345 346 349 348 357 359 350 349 356 5 12 19 26 27 35 32 99 185 216 216 217
313 313 301 286 279 278 272 267 255 236 232 228 231 230 241 256 272 285 296 296 303 330 338 345 348 350 357 356 349 353 359 5 20 33 37 39 44 38 49 71 125 197 211
315 306 297 287 282 277 272 264 246 229 225 223 223 228 232 249 264 279 292 298 299 317 341 349 360 350 359 0 1 7 14 25 35 41 42 40 39 31 31 35 54 91 120